Theta_e
312 312 311 311 311 311 311 311 311 311 312 312 313 313 318 315 314 314 313 315 318 322 321 317 317 325 326 326 327 328 328 339 337 338 342 342 341 346 345 345 344 343 341 341 341
311 311 310 310 310 310 311 311 311 311 311 312 313 314 318 315 315 316 315 320 318 320 319 320 323 327 326 327 329 334 335 338 337 337 341 343 344 345 344 345 345 343 343 342 341
310 310 309 309 310 310 310 311 311 311 312 312 313 315 318 315 321 326 318 323 319 319 317 324 325 327 326 327 332 335 338 337 338 338 340 342 341 340 344 344 344 344 343 342 341
309 309 308 308 309 309 310 310 311 311 312 312 313 316 318 315 330 325 325 322 320 317 320 324 326 325 327 329 335 336 337 337 337 339 340 342 340 338 343 344 343 344 344 343 341
307 307 308 308 308 309 310 310 311 311 312 313 313 317 319 322 323 328 323 319 317 317 322 325 325 325 327 329 336 335 336 338 338 338 340 342 342 342 342 342 342 342 342 341 340
307 307 307 308 308 308 309 310 311 311 312 313 314 318 319 326 327 325 318 316 317 317 324 326 325 326 327 326 325 336 336 336 338 338 341 342 341 342 342 341 341 340 339 334 332
307 307 307 307 308 309 309 310 311 312 313 313 314 319 321 318 327 328 319 316 316 318 323 323 324 326 326 323 337 337 335 335 337 338 339 341 342 342 341 341 340 340 334 332 331
307 307 307 307 308 308 309 311 311 312 313 314 315 319 322 325 325 327 323 317 317 318 322 323 324 325 324 326 331 335 336 340 337 335 337 337 343 341 341 340 340 338 333 332 331
308 307 307 308 308 308 310 311 312 313 317 316 317 323 327 326 327 327 324 322 321 321 321 322 324 324 325 331 332 335 342 342 342 337 335 338 345 341 340 340 340 337 333 333 332
309 308 308 308 308 309 311 316 315 319 320 321 318 326 326 325 325 326 325 323 321 322 321 323 323 322 322 332 332 339 341 339 340 336 337 338 338 340 340 338 336 335 334 333 333
315 309 308 308 308 309 316 321 320 325 319 326 324 326 325 325 325 325 325 324 322 322 321 323 320 321 323 332 333 336 338 339 338 338 338 338 336 340 340 340 336 335 334 334 333
316 312 308 308 309 310 315 321 318 317 318 319 322 323 325 326 325 324 324 324 322 321 321 322 321 323 326 331 332 332 333 336 338 338 338 337 338 340 341 340 338 336 336 336 334
317 315 310 308 309 315 320 319 317 318 321 322 321 322 323 325 326 324 322 322 322 321 320 321 325 326 327 329 332 331 331 333 338 339 338 339 340 340 342 341 340 340 337 336 335
317 316 313 308 309 319 320 319 317 318 323 324 322 322 323 324 323 324 321 322 322 321 320 321 323 326 327 328 328 328 332 333 333 333 346 340 333 334 344 343 341 340 339 337 337
317 317 316 313 312 315 319 319 317 319 332 329 323 323 324 323 323 323 322 321 320 320 321 321 323 323 327 328 328 328 328 328 328 327 328 333 331 337 345 345 344 341 338 337 338
317 317 317 314 314 315 319 319 317 322 331 329 324 322 323 324 324 324 321 321 321 320 321 321 325 323 324 327 326 325 325 325 325 325 325 339 337 339 343 346 344 342 338 337 338
317 317 317 317 311 318 319 319 320 325 327 325 324 322 322 325 325 324 322 319 318 319 321 322 322 324 325 324 324 325 322 323 324 325 327 338 341 346 342 342 341 337 339 338 337
316 317 317 317 312 314 319 319 323 324 321 328 325 323 323 324 324 324 322 319 319 319 321 322 322 322 324 323 322 323 322 323 329 341 339 335 343 349 339 334 337 340 339 338 338
316 317 317 317 314 318 321 320 323 325 328 330 326 322 322 324 325 325 324 322 320 320 320 324 324 324 324 324 322 323 324 324 325 326 334 344 348 341 339 339 340 339 339 338 337
315 317 316 318 322 323 318 319 322 322 323 327 328 324 322 323 325 324 325 325 324 321 321 324 326 327 326 323 322 323 328 329 331 335 336 336 345 348 341 341 341 340 338 338 337
315 321 323 320 322 318 316 317 319 320 322 325 326 329 331 328 325 324 327 328 326 324 322 321 325 324 326 324 322 323 324 328 332 333 334 339 346 340 339 339 343 340 339 337 336
320 323 321 319 319 318 316 317 318 320 320 322 325 327 328 331 330 325 327 328 328 326 323 322 324 324 324 325 324 324 328 331 334 334 338 338 338 335 338 339 339 341 338 337 335
320 322 323 322 318 317 318 318 317 318 320 322 324 326 328 330 334 326 325 326 328 327 325 322 323 323 326 331 328 326 327 330 337 335 335 338 339 336 339 341 341 340 336 334 330
319 325 323 323 320 320 319 320 321 319 321 322 323 324 329 332 330 332 331 327 327 328 329 326 327 327 327 334 331 334 330 328 332 336 334 334 340 337 336 341 338 337 335 332 330
317 322 322 324 323 322 319 320 322 325 322 321 322 324 326 333 333 330 330 330 327 325 326 328 327 329 326 328 329 331 333 330 329 330 332 334 336 332 338 337 337 336 334 332 330
315 321 319 321 322 324 322 319 322 325 324 323 322 324 325 328 333 340 338 339 341 327 325 333 330 330 333 333 331 334 333 333 332 328 334 338 337 337 338 338 337 336 335 332 330
313 316 319 321 322 323 323 320 323 325 326 323 321 322 325 336 334 335 335 335 336 340 327 334 333 334 333 334 332 334 335 333 333 331 333 336 333 333 335 336 337 336 335 332 330
Wind_Speed
20 22 21 20 20 19 20 21 22 22 23 24 26 25 20 14 11 12 13 9 12 4 8 6 10 8 1 13 21 22 4 3 6 9 13 26 15 29 24 27 15 18 32 28 26
20 22 23 20 21 20 19 21 22 22 22 23 25 23 18 15 14 16 7 5 10 10 10 10 7 5 10 7 4 3 4 9 1 16 18 25 26 19 14 22 25 29 28 27 24
19 21 23 23 22 21 20 21 21 22 22 22 24 20 17 15 10 7 9 6 11 10 10 6 8 14 18 14 8 3 6 11 15 24 28 18 22 14 24 12 24 27 26 28 27
18 20 22 22 23 21 20 20 21 21 21 21 23 18 15 11 2 4 7 10 11 11 14 13 17 20 6 3 8 4 7 17 18 22 30 14 17 9 18 20 27 24 26 29 28
18 18 20 23 22 22 20 20 20 20 21 21 21 15 15 6 11 10 8 12 12 15 17 11 13 18 6 3 2 6 6 16 21 23 25 27 20 13 21 24 23 23 20 23 29
18 19 20 21 22 22 21 20 19 18 18 19 18 13 11 7 4 4 6 12 13 19 17 13 12 15 11 11 4 16 20 13 22 16 29 22 18 14 20 24 23 21 20 27 29
18 20 21 20 21 21 20 20 18 17 16 17 14 12 12 16 8 4 7 11 15 22 12 10 13 6 12 10 6 9 6 12 16 15 7 21 8 10 24 23 22 22 26 26 22
19 20 21 21 19 19 19 19 16 16 15 15 11 10 11 4 12 8 6 8 14 20 13 11 14 10 6 11 7 6 7 5 6 11 8 14 7 14 25 25 24 22 26 24 20
19 19 20 22 20 18 19 17 15 13 12 11 7 7 11 8 13 14 10 9 10 12 14 13 10 5 9 4 1 10 5 6 9 5 8 3 3 15 26 26 25 24 28 26 26
21 21 20 20 19 19 16 14 9 11 10 9 9 6 13 17 13 18 13 14 13 12 12 6 0 1 4 1 6 5 5 5 5 11 5 15 16 7 27 27 28 30 30 30 32
21 21 20 18 15 15 12 14 7 2 10 12 7 11 14 10 15 16 15 17 15 13 5 10 2 6 11 9 7 11 10 10 7 13 2 12 20 11 29 24 25 29 32 33 34
21 20 20 17 13 7 9 9 7 11 13 20 26 28 28 8 11 14 18 17 12 6 9 4 10 9 10 9 10 8 6 10 15 13 12 21 21 14 26 32 31 32 33 34 37
19 18 18 14 10 4 8 6 10 16 6 18 24 26 25 15 14 18 22 22 10 9 10 10 6 12 12 12 13 10 8 10 12 18 13 5 15 17 23 19 19 25 30 43 45
17 16 16 15 5 7 1 5 10 13 3 7 12 24 26 15 8 22 25 21 7 14 10 9 16 15 14 14 13 13 9 12 12 6 9 19 6 3 19 17 13 22 34 37 37
17 16 13 12 13 8 5 9 15 6 4 7 17 12 24 21 9 21 29 28 13 11 7 8 11 14 16 19 18 15 11 4 5 5 4 10 5 7 18 10 13 19 32 38 37
17 16 15 7 16 6 10 13 9 1 7 5 12 10 15 23 26 12 29 29 19 11 8 14 23 12 15 6 2 5 7 7 6 2 2 5 6 4 1 7 5 12 31 34 36
17 15 16 14 12 4 6 12 1 4 9 14 14 13 18 11 17 13 15 14 11 5 6 8 13 8 6 3 5 3 5 4 6 3 6 9 4 7 11 19 15 21 19 35 37
19 18 17 17 11 6 4 2 5 9 14 4 14 16 15 14 15 15 15 11 12 11 3 6 8 7 5 7 10 8 7 5 7 4 6 2 6 4 6 26 34 27 27 34 34
18 18 21 12 8 6 2 3 6 8 7 17 15 13 13 15 9 13 13 16 15 16 8 4 9 10 8 5 9 7 9 9 4 8 2 5 5 5 10 12 24 34 27 31 32
16 16 18 7 12 14 5 6 7 12 21 13 3 11 13 15 14 9 14 16 14 19 16 7 4 8 10 13 11 10 5 3 2 5 6 4 4 5 4 4 12 14 28 30 31
12 6 6 15 11 16 6 6 10 25 25 8 13 7 5 6 16 12 12 12 19 17 17 9 5 16 4 4 8 3 8 5 2 5 5 0 2 7 11 5 4 17 28 34 34
3 3 7 15 5 7 8 7 9 21 32 6 5 6 7 15 4 17 11 13 32 25 17 10 6 7 11 11 14 10 9 7 4 7 3 3 6 6 10 26 22 29 37 36 32
4 11 7 7 4 7 11 17 22 22 22 5 7 7 9 8 5 8 9 15 18 21 12 9 4 3 10 7 5 8 7 5 4 3 5 5 4 1 10 20 31 32 36 35 38
4 3 7 9 14 7 7 12 15 25 21 18 8 12 8 9 7 5 5 7 16 15 20 22 6 7 8 7 3 2 6 7 7 3 4 5 6 4 6 16 22 28 38 39 37
4 3 2 1 5 8 8 11 19 17 18 11 8 9 8 5 8 7 8 11 6 9 4 8 6 7 9 8 12 9 11 14 8 8 6 6 9 8 11 10 23 34 35 36 33
4 5 9 7 15 10 8 11 16 21 14 6 7 10 10 8 4 4 8 7 5 5 9 5 6 6 5 7 10 14 13 3 3 9 6 12 7 7 17 19 24 30 29 30 34
6 10 6 6 6 5 4 13 14 17 20 20 13 11 11 8 16 17 9 17 11 4 4 7 6 4 5 6 10 9 7 8 6 3 3 5 8 7 9 13 25 28 33 33 33
Wind_Direction
302 304 308 313 315 317 319 321 324 326 328 333 332 333 329 325 304 276 249 219 204 258 229 189 185 173 249 259 253 264 208 312 236 141 120 105 97 79 86 82 109 112 138 144 149
299 302 305 310 311 315 317 318 322 325 327 331 330 331 329 328 307 270 204 207 218 244 220 186 197 205 238 261 248 139 124 182 338 123 126 128 111 110 102 96 99 114 138 148 148
296 300 303 308 309 314 315 316 319 321 326 329 328 329 330 328 315 273 211 194 230 232 202 195 237 225 232 252 208 231 91 17 312 126 121 121 117 125 124 135 141 142 154 154 158
294 298 301 306 308 311 312 313 316 318 322 326 326 326 327 319 330 293 216 213 228 218 191 216 237 248 239 253 198 104 175 200 124 122 118 123 136 98 144 156 150 154 167 167 163
293 296 299 303 307 310 311 309 312 315 319 322 322 321 328 306 266 279 230 219 200 198 190 208 249 250 238 306 200 103 277 194 115 103 107 121 115 119 121 138 148 163 170 161 160
295 297 300 302 306 309 310 307 308 311 313 317 315 310 316 253 245 266 228 207 197 192 187 221 235 254 302 284 211 212 153 142 115 112 108 108 122 127 139 143 150 158 159 140 133
298 297 300 305 307 309 309 303 304 305 308 309 305 300 292 254 241 283 231 212 201 190 188 217 253 286 321 333 180 155 119 77 38 23 118 130 131 146 148 152 161 175 146 139 136
307 303 300 302 309 308 306 304 302 299 302 300 294 292 273 284 216 245 231 187 187 193 219 241 277 273 274 277 280 81 57 21 319 45 355 2 192 154 161 163 176 170 149 146 144
310 307 306 305 308 312 309 308 300 289 296 289 284 277 270 196 201 224 200 202 187 215 231 270 224 250 295 259 336 13 106 50 339 316 19 78 239 176 173 174 178 172 158 158 157
312 312 309 308 309 315 319 316 302 289 275 276 226 290 248 226 224 206 198 201 208 228 245 219 333 238 288 110 189 152 126 66 315 266 306 274 250 219 185 185 180 178 167 166 159
309 312 313 308 307 317 340 10 359 41 328 251 212 248 294 204 206 197 192 202 204 227 206 199 190 204 241 239 248 168 130 173 184 255 331 242 246 245 195 199 185 180 175 170 165
308 310 314 310 305 306 320 350 357 325 295 279 260 262 265 201 162 190 187 197 191 209 215 252 221 232 235 253 255 264 260 216 170 200 189 259 244 221 194 204 190 183 180 170 159
310 312 315 309 297 296 314 325 339 329 287 285 249 239 243 182 200 203 194 207 183 209 224 226 213 228 243 252 260 247 231 262 179 207 209 320 258 208 199 198 209 193 184 168 167
310 313 319 313 260 266 3 14 334 331 298 260 203 227 226 193 224 219 196 202 203 203 220 232 248 219 227 240 254 269 234 234 260 155 205 207 260 253 169 179 203 228 168 162 162
305 309 312 322 284 285 353 360 329 311 310 176 189 187 197 179 176 215 194 203 229 197 185 237 228 236 232 229 234 253 260 235 282 268 28 352 51 336 141 191 191 206 164 162 167
300 304 304 284 279 312 335 331 312 223 248 195 151 161 185 191 220 207 177 202 230 253 251 226 225 234 234 219 202 338 336 348 305 199 326 146 120 252 246 200 212 192 174 161 153
291 294 291 285 260 308 346 340 171 231 286 145 166 166 191 183 209 210 176 196 216 202 252 282 244 256 148 69 7 356 17 336 305 339 227 188 96 45 346 345 326 285 256 155 153
286 288 283 269 265 249 357 313 239 253 246 317 163 175 201 186 214 221 174 191 223 234 218 225 262 239 161 173 194 214 192 201 246 209 240 234 162 178 56 324 300 268 233 151 153
290 290 285 257 213 152 256 255 222 222 312 306 183 173 193 203 201 207 179 198 204 218 206 215 234 257 180 171 163 252 237 212 254 279 327 121 88 200 232 245 279 174 166 141 155
304 304 280 204 175 213 222 242 264 315 310 332 193 167 184 200 200 213 186 196 207 207 213 256 298 274 265 180 217 195 220 261 272 250 264 194 131 185 238 199 99 158 152 154 169
311 299 323 157 179 184 221 238 283 284 292 346 344 333 348 257 197 219 192 195 195 210 207 221 138 273 348 259 173 231 248 249 190 149 209 204 223 207 176 193 191 223 167 162 169
298 256 142 153 161 210 239 260 253 285 296 270 307 316 305 304 268 202 215 202 191 203 197 194 179 234 246 271 186 185 207 193 130 281 116 125 256 212 170 187 193 168 165 167 167
272 273 256 253 220 238 268 261 258 270 279 289 282 280 295 300 319 210 206 240 192 199 176 189 228 263 323 324 198 189 219 196 121 93 200 153 269 73 112 145 149 155 160 163 153
304 295 231 248 250 276 293 296 270 262 268 255 287 309 311 310 293 305 338 243 236 182 182 171 169 160 217 223 26 227 234 214 143 128 246 208 155 211 171 147 156 147 148 151 155
256 263 17 298 249 281 245 280 292 289 267 260 301 293 287 309 326 305 298 304 163 136 105 129 176 185 240 279 276 267 285 222 198 212 209 207 158 194 169 151 150 149 149 153 156
292 346 334 294 298 300 251 251 263 278 269 225 234 267 269 263 281 332 10 12 329 341 161 175 192 186 285 287 274 281 246 96 305 244 98 114 72 133 141 134 133 150 152 151 157
276 296 327 292 275 302 301 231 262 262 291 252 208 245 262 14 359 321 320 300 278 271 223 142 128 121 244 276 286 289 344 334 227 192 163 134 171 131 138 139 148 151 155 157 162